Tracking 31027 objects as of 19-Jul-2025
HD Live streaming from Space Station
objects crossing your sky now

STARLINK-6304

Track STARLINK-6304 now!
10-day predictions
STARLINK-6304 is classified as:


NORAD ID: 56778
Int'l Code: 2023-078M
Perigee: 576.5 km
Apogee: 582.0 km
Inclination: 70.0 °
Period: 96.1 minutes
Semi major axis: 6950 km
RCS: Unknown
Launch date: May 31, 2023
Source: United States (US)
Launch site: AIR FORCE WESTERN TEST RANGE (AFWTR)
Your satellite tracking list
COSMOS 2251 DEB
Track 1 satellite(s)




NASA's NSSDC Master Catalog

Two Line Element Set (TLE):
1 56778U 23078M   25199.58919692  .00000648  00000-0  62143-4 0  9996
2 56778  69.9989 194.8610 0003998 266.2923  93.7779 14.98316043118105
Source of the keplerian elements: AFSPC